Location: ???? ?????
(37.9132°N, 22.9869°E)
Time: 21:53:04
(UTC+00:00)

NOSS 2-1 (E) - Pass Details

Date: 04 August 2024
Orbit: 385 x 1749 km, 63.3° (Epoch: 07 May)

Event Time Altitude Azimuth Distance (km) Brightness Sun altitude
Rises 18:02:15 0° 184° (S) 2,917 6.8 -6.0°
Reaches altitude 10° 18:05:11 10° 168° (SSE) 1,808 5.6 -6.5°
Maximum altitude 18:08:07 20° 119° (ESE) 1,135 4.3 -7.0°
Drops below altitude 10° 18:10:38 10° 69° (ENE) 1,523 5.2 -7.4°
Sets 18:12:52 0° 51° (NE) 2,315 6.3 -7.8°
